Regional Weather Roundup
Issued by NWS

Home | Current Version | Previous Version | Graphics & Text | Print | Product List | Glossary On
Versions: 1 2 3 4 5 6 7 8 9 10 11 12 13 14 15 16 17 18 19 20 21 22 23 24 25 26 27 28 29 30 31 32 33 34 35 36 37 38 39 40 41 42 43 44 45 46 47 48 49 50
000
ASUS43 KOAX 250710
RWRNE

WEATHER ROUNDUP FOR NEBRASKA
NATIONAL WEATHER SERVICE OMAHA NE
200 AM CDT TUE APR 25 2017

NOTES: SATELLITE DATA IS BEING USED TO AUGMENT CLOUD COVER ABOVE
       12000 FEET.
       "FAIR" INDICATES FEW OR NO CLOUDS BELOW 12,000 FEET WITH NO
       SIGNIFICANT WEATHER AND/OR OBSTRUCTIONS TO VISIBILITY.

  * THESE STATIONS DO NOT REPORT WEATHER SUCH AS RAIN...SNOW OR FOG.

NEZ001>004-019>022-054>056-250800-
NEBRASKA PANHANDLE

CITY           SKY/WX    TMP DP  RH WIND       PRES   REMARKS
SCOTTSBLUFF    RAIN      45  43  93 W5        29.61R FOG
ALLIANCE       CLOUDY    46  43  89 E9        29.55R
CHADRON        HVY RAIN  46  44  93 N5        29.60R FOG
KIMBALL        RAIN      38  38 100 NW10      29.62S WCI  31
SIDNEY         LGT RAIN  45  42  89 CALM      29.54R
$$

NEZ057>060-069>072-079>082-250800-
SOUTHWEST NEBRASKA

CITY           SKY/WX    TMP DP  RH WIND       PRES   REMARKS
NORTH PLATTE   LGT RAIN  48  45  89 NE10      29.59F
IMPERIAL       RAIN      48  45  89 E21       29.52F
LEXINGTON      CLOUDY    52  41  66 N8        29.57R
MCCOOK         MOCLDY    55  42  61 NE21      29.50F
OGALLALA       CLOUDY    48  45  88 E15       29.52F
$$

NEZ005>010-023>029-035>040-094-250800-
NORTH CENTRAL NEBRASKA

CITY           SKY/WX    TMP DP  RH WIND       PRES   REMARKS
VALENTINE      CLOUDY    41  34  76 NE14      29.63S
AINSWORTH      CLOUDY    42  39  91 N7        29.61F
BROKEN BOW     CLOUDY    47  40  76 N23       29.57F
O`NEILL        CLOUDY    43  38  83 N7        29.62R
ORD            CLOUDY    48  38  68 N14G25    29.56R
THEDFORD       CLOUDY    46  41  83 E6        29.60F
$$

NEZ041-046>049-061>064-073>077-083>087-250800-
SOUTH CENTRAL NEBRASKA

CITY           SKY/WX    TMP DP  RH WIND       PRES   REMARKS
GRAND ISLAND   CLOUDY    46  41  82 N12       29.56F
AURORA         CLOUDY    48  40  73 N13       29.55F
HASTINGS       MOCLDY    51  40  65 N9        29.58R
HEBRON         CLOUDY    55  44  65 NE10      29.54R
HOLDREGE       MOCLDY    52  39  61 E15       29.55R
KEARNEY *      CLOUDY    52  37  58 E16       29.57R
YORK           CLOUDY    48  41  76 N15       29.55S
$$

NEZ011>018-030>034-042>045-250800-
NORTHEAST NEBRASKA

CITY           SKY/WX    TMP DP  RH WIND       PRES   REMARKS
NORFOLK        CLOUDY    46  39  76 N13       29.56S
ALBION         CLOUDY    49  39  69 N13G21    29.55F
BLAIR          CLEAR     53  44  71 N12       29.51F
FREMONT        PTCLDY    50  41  71 NW9       29.54F
TEKAMAH        CLEAR     51  42  71 NW6       29.53F
WAYNE          PTCLDY    46  42  89 N8        29.57R
$$

NEZ050>053-065>068-078-088>093-250800-
SOUTHEAST NEBRASKA

CITY           SKY/WX    TMP DP  RH WIND       PRES   REMARKS
LINCOLN        PTCLDY    52  42  69 N12       29.55R
OMAHA EPPLEY   PTCLDY    54  44  69 N12       29.51F
BEATRICE       PTCLDY    59  51  75 SW7       29.50S
FALLS CITY     CLOUDY    55  45  68 SE5       29.52F
NEBRASKA CITY  PTCLDY    56  41  58 S9        29.51S
PLATTSMOUTH    PTCLDY    58  42  55 CALM      29.51S
$$

NEZ044-045-051>053-067-250800-
OMAHA AREA

CITY           SKY/WX    TMP DP  RH WIND       PRES   REMARKS
OMAHA EPPLEY   PTCLDY    54  44  69 N12       29.51F
BLAIR          CLEAR     53  44  71 N12       29.51F
FREMONT        PTCLDY    50  41  71 NW9       29.54F
MILLARD        CLEAR     57  47  68 NW6       29.52S
OFFUTT AFB     PTCLDY    53  44  70 CALM      29.51S
PLATTSMOUTH    PTCLDY    58  42  55 CALM      29.51S
WAHOO          FAIR      49  41  73 N9        29.53F
$$




USA.gov is the U.S. government's official web portal to all federal, state and local government web resources and services.